Tracking 28514 objects as of 23-Feb-2024
HD Live streaming from Space Station
objects crossing your sky now

STARLINK-3882

Track STARLINK-3882 now!
10-day predictions
STARLINK-3882 is classified as:


NORAD ID: 52475
Int'l Code: 2022-049AA
Perigee: 545.9 km
Apogee: 547.8 km
Inclination: 53.2 °
Period: 95.4 minutes
Semi major axis: 6917 km
RCS: Unknown
Launch date: May 6, 2022
Source: United States (US)
Launch site: AIR FORCE EASTERN TEST RANGE (AFETR)
Your satellite tracking list
Your tracking list is empty




NASA's NSSDC Master Catalog

Two Line Element Set (TLE):
1 52475U 22049AA  24053.59940658  .00002974  00000-0  20475-3 0  9993
2 52475  53.2161 168.6704 0001391  98.1628 261.9521 15.08860598 99771
Source of the keplerian elements: AFSPC